Flag for Vietnam Weather past 2 weeks in Ho Chi Minh, Vietnam

Now
84 °F

Thunderstorms. Scattered clouds.


Feels Like: 90 °F
Forecast: 75 / 91 °F
Wind: 20 mph from Southeast

Location: Ho Chi Minh

Current Time: Sep 30, 2014 at 5:32:18 PM

Latest Report: Sep 30, 2014 at 4:30 PM


Visibility: 5 mi

Pressure: 29.74 "Hg

Humidity: 66%

Dew point: 72 °F

Location of Ho Chi MinhLocation

Historic Weather in Ho Chi Minh — Graph

°F

Ho Chi Minh temperature yesterday

Maximum temperature yesterday: 95 °F (at 12:30 PM)
Minimum temperature yesterday: 77 °F (at 6:00 PM)
Average temperature yesterday: 83 °F

Past Weeks' High & Low Weather Summary

 TemperatureHumidityPressure
High95 °F (Sep 29, 12:30 PM)94% (Sep 16, 3:30 AM)29.92 "Hg (Sep 16, 3:30 AM)
Low73 °F (Sep 18, 5:00 AM)47% (Sep 29, 12:30 PM)29.59 "Hg (Sep 16, 3:00 PM)
Average83 °F77%29.81 "Hg
* Reported Sep 15 4:00 PM — Sep 30 4:00 PM, Ho Chi Minh, Weather by CustomWeather, © 2014

Note: Actual official high and low records may vary slightly from our data, if they occured in-between our weather recording intervals... More about our weather records

Advertising

Ho Chi Minh weather history for previous 24 hours

 ConditionsComfort  
Time TempWeatherWind HumidityBarometerVisibility
4:00 PM
Sep 30
90 °FScattered clouds.3 mph59%29.74 "HgN/A
3:30 PM91 °FScattered clouds.5 mph56%29.71 "HgN/A
3:00 PM91 °FPartly sunny.3 mph52%29.71 "HgN/A
2:30 PM91 °FPartly sunny.2 mph56%29.74 "HgN/A
2:00 PM93 °FPartly sunny.3 mph49%29.74 "HgN/A
1:30 PM91 °FPartly sunny.5 mph56%29.77 "HgN/A
1:00 PM93 °FPartly sunny.6 mph53%29.77 "HgN/A
12:30 PM93 °FPartly sunny.1 mph49%29.80 "HgN/A
12:00 PM91 °FPartly sunny.2 mph49%29.83 "HgN/A
11:30 AM91 °FScattered clouds.3 mph56%29.83 "HgN/A
11:00 AM91 °FScattered clouds.2 mph56%29.86 "HgN/A
10:30 AM88 °FScattered clouds.2 mph62%29.86 "HgN/A
10:00 AM88 °FScattered clouds.3 mph66%29.89 "HgN/A
9:30 AM88 °FScattered clouds.2 mph66%29.89 "HgN/A
9:00 AM86 °FPassing clouds.2 mph75%29.89 "HgN/A
8:30 AM84 °FPassing clouds.3 mph74%29.86 "HgN/A
8:00 AM81 °FScattered clouds.3 mph84%29.86 "HgN/A
7:30 AM79 °FScattered clouds.3 mph89%29.86 "HgN/A
7:00 AM79 °FScattered clouds.3 mph89%29.86 "HgN/A
6:30 AM77 °FPartly sunny.3 mph89%29.86 "Hg5 mi
6:00 AM75 °FScattered clouds.2 mph94%29.86 "Hg5 mi
5:30 AM75 °FPartly cloudy.1 mph94%29.83 "HgN/A
5:00 AM75 °FPartly cloudy.3 mph94%29.83 "HgN/A
4:30 AM75 °FPartly cloudy.3 mph94%29.83 "HgN/A
4:00 AM75 °FPartly cloudy.5 mph94%29.83 "HgN/A
3:30 AM75 °FPartly cloudy.6 mph94%29.83 "HgN/A
3:00 AM75 °FThunderstorms. Partly cloudy.5 mph94%29.83 "Hg4 mi
2:30 AM77 °FThunderstorms. Partly cloudy.5 mph89%29.83 "Hg4 mi
2:00 AM75 °FThunderstorms. Partly cloudy.2 mph94%29.83 "Hg4 mi
1:30 AM75 °FThunderstorms. Partly cloudy.2 mph94%29.83 "HgN/A
1:00 AM75 °FThunderstorms. Partly cloudy.1 mph89%29.83 "HgN/A
12:30 AM75 °FThunderstorms. Partly cloudy.5 mph89%29.83 "HgN/A
12:00 AM77 °FThunderstorms. Partly cloudy.8 mph89%29.86 "HgN/A
11:30 PM
Sep 29
79 °FThunderstorms. Partly cloudy.5 mph89%29.86 "HgN/A
11:00 PM77 °FThunderstorms. Partly cloudy.1 mph89%29.86 "HgN/A
10:30 PM79 °FPartly cloudy.2 mph84%29.86 "HgN/A
10:00 PM79 °FLight rain. Partly cloudy.2 mph84%29.86 "Hg5 mi
9:30 PM79 °FPartly cloudy.2 mph84%29.86 "HgN/A
9:00 PM79 °FPartly cloudy.6 mph84%29.86 "HgN/A
8:30 PM79 °FPartly cloudy.6 mph84%29.86 "HgN/A
8:00 PM79 °FThunderstorms. Partly cloudy.8 mph84%29.83 "HgN/A
7:30 PM79 °FThunderstorms. Partly cloudy.10 mph89%29.80 "HgN/A
7:00 PM79 °FThunderstorms. Partly cloudy.10 mph89%29.80 "Hg5 mi
6:00 PM77 °FThunderstorms. Partly cloudy.1 mph89%29.77 "Hg4 mi
5:30 PM79 °FRain showers. Scattered clouds.10 mph79%29.77 "Hg4 mi
5:00 PM88 °FSprinkles. Scattered clouds.8 mph66%29.74 "Hg5 mi
Weather by CustomWeather, © 2014

See weather overviewHow to use our weather pages